,�O�C���x,�����t���O,�O�C���x,�����t���O,�󒲎����x,�����t���O,�󒲎����x,�����t���O,��󒲎����x,�����t���O,����,�����t���O
2004/12/1 0:00,11.2,0,60,0,23.2,0,54.3,0,=,2,16.9,0
2004/12/1 0:15,11,0,60,0,22.8,0,47.2,0,=,2,16.9,0
2004/12/1 0:30,10.9,0,60,0,23,0,50.5,0,=,2,17,0
2004/12/1 0:45,10.9,0,59,0,23,0,51.7,0,=,2,17,0
2004/12/1 1:00,11.1,0,57,0,23,0,52.4,0,=,2,17,0
2004/12/1 1:15,11.2,0,56,0,22.9,0,52.9,0,=,2,17.1,0
2004/12/1 1:30,11.2,0,56,0,22.9,0,53.5,0,=,2,17.1,0
2004/12/1 1:45,10.6,0,57,0,22.9,0,54.1,0,=,2,17.1,0
2004/12/1 2:00,10.8,0,57,0,22.9,0,53.9,0,=,2,17.1,0
2004/12/1 2:15,11,0,57,0,22.8,0,53.8,0,=,2,17.2,0
2004/12/1 2:30,10.8,0,56,0,22.8,0,53.6,0,=,2,17.2,0
2004/12/1 2:45,10.5,0,57,0,22.7,0,53.5,0,=,2,16.8,0
2004/12/1 3:00,10.7,0,56,0,22.7,0,53.4,0,=,2,16.9,0
2004/12/1 3:15,10.7,0,56,0,22.7,0,53.4,0,=,2,16.9,0
2004/12/1 3:30,10.8,0,55,0,22.7,0,53.3,0,=,2,16.9,0
2004/12/1 3:45,10.8,0,55,0,22.6,0,53.3,0,=,2,17,0
2004/12/1 4:00,10.6,0,55,0,22.6,0,53.3,0,=,2,17,0
2004/12/1 4:15,10.8,0,55,0,22.6,0,53.2,0,=,2,17,0
2004/12/1 4:30,10.4,0,57,0,22.6,0,53.1,0,=,2,17.1,0
2004/12/1 4:45,10.6,0,56,0,22.5,0,53,0,=,2,17.1,0
2004/12/1 5:00,10.6,0,57,0,22.5,0,52.9,0,=,2,17.1,0
2004/12/1 5:15,10.5,0,57,0,22.5,0,52.8,0,=,2,17.2,0
2004/12/1 5:30,10.6,0,56,0,22.5,0,52.7,0,=,2,17.2,0
2004/12/1 5:45,10.4,0,57,0,22.4,0,52.7,0,=,2,17.2,0
2004/12/1 6:00,10.5,0,57,0,22.4,0,52.6,0,=,2,17.3,0
2004/12/1 6:15,10.5,0,57,0,22.4,0,52.6,0,=,2,17.3,0
2004/12/1 6:30,10.5,0,57,0,22.4,0,52.5,0,=,2,17.3,0
2004/12/1 6:45,10.4,0,57,0,22.4,0,52.4,0,=,2,17.3,0
2004/12/1 7:00,10.3,0,59,0,22.3,0,52.4,0,=,2,17.4,0
2004/12/1 7:15,10.5,0,58,0,22.3,0,52.4,0,=,2,17.4,0
2004/12/1 7:30,10.1,0,59,0,22.4,0,52,0,=,2,16.9,0
2004/12/1 7:45,10.1,0,61,0,22.6,0,54.9,0,=,2,16.3,0
2004/12/1 8:00,10.3,0,61,0,22.7,0,55.6,0,=,2,16.1,0
2004/12/1 8:15,10.6,0,62,0,22.7,0,55,0,=,2,16,0
2004/12/1 8:30,10.7,0,61,0,22.6,0,55,0,=,2,16,0
2004/12/1 8:45,11,0,61,0,22.6,0,54.9,0,=,2,16.1,0
2004/12/1 9:00,11.2,0,60,0,22.6,0,55.1,0,=,2,16.1,0
2004/12/1 9:15,11.4,0,60,0,22.5,0,55.7,0,=,2,16.1,0
2004/12/1 9:30,11.8,0,58,0,22.4,0,54.8,0,=,2,16.2,0
2004/12/1 9:45,12,0,57,0,22.6,0,54.8,0,=,2,16.1,0
2004/12/1 10:00,16.9,0,52,0,21.9,0,45.5,0,=,2,16.1,0
2004/12/1 10:15,14.1,0,48,0,22.3,0,45.5,0,=,2,16.1,0
2004/12/1 10:30,13.4,0,52,0,22.7,0,46.5,0,=,2,16.2,0
2004/12/1 10:45,13.5,0,51,0,22.9,0,46.4,0,=,2,16.2,0
2004/12/1 11:00,13.6,0,50,0,22.9,0,46,0,=,2,16.3,0
2004/12/1 11:15,13.9,0,47,0,23,0,45.8,0,=,2,16.3,0
2004/12/1 11:30,14,0,46,0,23,0,45.1,0,=,2,16.3,0
2004/12/1 11:45,14,0,48,0,23,0,44.8,0,=,2,16.4,0
2004/12/1 12:00,14,0,51,0,23.1,0,44.7,0,=,2,16.4,0
2004/12/1 12:15,14.2,0,52,0,23.1,0,44.6,0,=,2,16.4,0
2004/12/1 12:30,14.1,0,52,0,23.1,0,44.4,0,=,2,16.5,0
2004/12/1 12:45,14.3,0,52,0,23.1,0,44.3,0,=,2,16.5,0
2004/12/1 13:00,14.2,0,53,0,23.1,0,44.1,0,=,2,16.5,0
2004/12/1 13:15,14.2,0,52,0,23.2,0,44,0,=,2,16.6,0
2004/12/1 13:30,14.4,0,51,0,23.1,0,44.1,0,=,2,16.6,0
2004/12/1 13:45,14.5,0,51,0,23.1,0,44.3,0,=,2,16.6,0
2004/12/1 14:00,14.6,0,53,0,22.9,0,44.5,0,=,2,16.7,0
2004/12/1 14:15,14.7,0,52,0,22.7,0,44.8,0,=,2,16.7,0
2004/12/1 14:30,14.6,0,53,0,22.6,0,45,0,=,2,16.8,0
2004/12/1 14:45,14.5,0,54,0,22.5,0,45.2,0,=,2,16.8,0
2004/12/1 15:00,14.5,0,54,0,22.4,0,45.2,0,=,2,16.8,0
2004/12/1 15:15,14.6,0,54,0,22.4,0,45.1,0,=,2,16.9,0
2004/12/1 15:30,14.7,0,55,0,22.3,0,45.2,0,=,2,16.9,0
2004/12/1 15:45,14.7,0,53,0,22.3,0,45.5,0,=,2,16.9,0
2004/12/1 16:00,14.5,0,55,0,22.3,0,45.7,0,=,2,17,0
2004/12/1 16:15,14.6,0,53,0,22.3,0,46,0,=,2,16.9,0
2004/12/1 16:30,14.5,0,53,0,22.3,0,46.1,0,=,2,16.9,0
2004/12/1 16:45,14.7,0,53,0,22.2,0,46.2,0,=,2,16.8,0
2004/12/1 17:00,14.4,0,56,0,22.3,0,46.3,0,=,2,16.9,0
2004/12/1 17:15,14.5,0,58,0,22.3,0,46.6,0,=,2,16.9,0
2004/12/1 17:30,14.2,0,59,0,22.3,0,46.7,0,=,2,16.9,0
2004/12/1 17:45,14.3,0,59,0,22.3,0,47,0,=,2,16.9,0
2004/12/1 18:00,14.3,0,59,0,22.3,0,47.3,0,=,2,17,0
2004/12/1 18:15,14.2,0,59,0,22.3,0,47.5,0,=,2,17,0
2004/12/1 18:30,14.2,0,59,0,22.4,0,48,0,=,2,16.8,0
2004/12/1 18:45,13.9,0,61,0,22.4,0,48.7,0,=,2,16.8,0
2004/12/1 19:00,13.6,0,63,0,22.5,0,49.4,0,=,2,16.9,0
2004/12/1 19:15,13.4,0,64,0,22.6,0,50.8,0,=,2,16.9,0
2004/12/1 19:30,13.4,0,64,0,22.7,0,50.7,0,=,2,16.9,0
2004/12/1 19:45,13.2,0,65,0,22.8,0,51.7,0,=,2,16.6,0
2004/12/1 20:00,13.1,0,65,0,22.8,0,52.2,0,=,2,16.6,0
2004/12/1 20:15,13,0,66,0,22.7,0,52.3,0,=,2,16.6,0
2004/12/1 20:30,13.1,0,66,0,22.7,0,52.2,0,=,2,16.7,0
2004/12/1 20:45,13.1,0,67,0,22.7,0,52.9,0,=,2,16.7,0
2004/12/1 21:00,12.9,0,66,0,22.7,0,53.2,0,=,2,16.7,0
2004/12/1 21:15,12.6,0,68,0,22.7,0,53.7,0,=,2,16.7,0
2004/12/1 21:30,12.8,0,67,0,22.7,0,53.8,0,=,2,16.5,0
2004/12/1 21:45,12.6,0,68,0,22.6,0,54,0,=,2,16.5,0
2004/12/1 22:00,12.6,0,68,0,22.7,0,54.4,0,=,2,16.5,0
2004/12/1 22:15,12.3,0,69,0,22.8,0,54.5,0,=,2,16.5,0
2004/12/1 22:30,12.5,0,69,0,22.9,0,54.6,0,=,2,16.6,0
2004/12/1 22:45,12.5,0,69,0,23,0,55.4,0,=,2,16.6,0
2004/12/1 23:00,12.4,0,70,0,22.9,0,56.4,0,=,2,16.6,0
2004/12/1 23:15,12.3,0,70,0,22.9,0,56.5,0,=,2,16.6,0
2004/12/1 23:30,12.6,0,69,0,22.9,0,57.7,0,=,2,16.7,0
2004/12/1 23:45,12.5,0,69,0,22.8,0,58.4,0,=,2,16.7,0
2004/12/2 0:00,12.5,0,70,0,22.8,0,58.9,0,=,2,16.8,0
2004/12/2 0:15,12.5,0,69,0,22.7,0,59.6,0,=,2,16.8,0
2004/12/2 0:30,12.4,0,69,0,22.7,0,60.5,0,=,2,16.8,0
2004/12/2 0:45,12.4,0,69,0,22.7,0,59.5,0,=,2,16.9,0
2004/12/2 1:00,12.4,0,69,0,22.7,0,59.2,0,=,2,16.9,0
2004/12/2 1:15,12.3,0,70,0,22.6,0,58.9,0,=,2,16.9,0
2004/12/2 1:30,12.4,0,70,0,22.6,0,58.5,0,=,2,17,0
2004/12/2 1:45,12.4,0,70,0,22.6,0,58.1,0,=,2,17,0
2004/12/2 2:00,12.2,0,70,0,22.5,0,58.1,0,=,2,17,0
2004/12/2 2:15,12.4,0,71,0,22.5,0,57.8,0,=,2,17.1,0
2004/12/2 2:30,12.4,0,71,0,22.5,0,57.6,0,=,2,17.1,0
2004/12/2 2:45,12.3,0,71,0,22.4,0,57.5,0,=,2,17.1,0
2004/12/2 3:00,12.2,0,72,0,22.3,0,57.2,0,=,2,17.2,0
2004/12/2 3:15,11.7,0,73,0,22.3,0,56.9,0,=,2,17.2,0
2004/12/2 3:30,11.9,0,73,0,22.3,0,56.6,0,=,2,17.2,0
2004/12/2 3:45,11.7,0,73,0,22.2,0,56.4,0,=,2,17.3,0
2004/12/2 4:00,11.7,0,72,0,22.2,0,56,0,=,2,17.3,0
2004/12/2 4:15,11.6,0,73,0,22.2,0,55.9,0,=,2,17.3,0
2004/12/2 4:30,11.6,0,73,0,22.2,0,55.6,0,=,2,17.4,0
2004/12/2 4:45,11.5,0,72,0,22.2,0,55.4,0,=,2,17.4,0
2004/12/2 5:00,11.7,0,72,0,22.1,0,55.2,0,=,2,17.4,0
2004/12/2 5:15,11.5,0,71,0,22.1,0,55.1,0,=,2,17.5,0
2004/12/2 5:30,11.4,0,71,0,22.1,0,54.9,0,=,2,17.5,0
2004/12/2 5:45,11.2,0,72,0,22.1,0,54.8,0,=,2,17.5,0
2004/12/2 6:00,11.4,0,71,0,22.1,0,54.6,0,=,2,17.6,0
2004/12/2 6:15,11.4,0,71,0,22.1,0,54.4,0,=,2,17.6,0
2004/12/2 6:30,11.6,0,70,0,22,0,54.3,0,=,2,17.6,0
2004/12/2 6:45,11.5,0,70,0,22,0,54.2,0,=,2,17.6,0
2004/12/2 7:00,11.5,0,70,0,22,0,54.1,0,=,2,17.7,0
2004/12/2 7:15,11.6,0,69,0,22,0,54,0,=,2,17.7,0
2004/12/2 7:30,11.5,0,70,0,22.1,0,55.1,0,=,2,17.1,0
2004/12/2 7:45,11.6,0,70,0,22.4,0,58,0,=,2,16.9,0
2004/12/2 8:00,11.5,0,71,0,22.6,0,59.2,0,=,2,16.1,0
2004/12/2 8:15,11.6,0,71,0,22.5,0,58.9,0,=,2,15.8,0
2004/12/2 8:30,12,0,71,0,22.4,0,58.3,0,=,2,15.7,0
2004/12/2 8:45,12.1,0,69,0,22.4,0,57.8,0,=,2,15.8,0
2004/12/2 9:00,12.2,0,68,0,22.4,0,57.1,0,=,2,15.8,0
2004/12/2 9:15,12.5,0,68,0,22.3,0,57,0,=,2,15.9,0
2004/12/2 9:30,12.9,0,67,0,22.3,0,57,0,=,2,15.9,0
2004/12/2 9:45,13.2,0,66,0,22.3,0,56.6,0,=,2,15.9,0
2004/12/2 10:00,13.4,0,64,0,22.3,0,56.6,0,=,2,16,0
2004/12/2 10:15,13.7,0,62,0,22.6,0,56.4,0,=,2,16,0
2004/12/2 10:30,13.9,0,58,0,22.8,0,55.9,0,=,2,16.1,0
2004/12/2 10:45,14.1,0,56,0,23,0,55.6,0,=,2,16.1,0
2004/12/2 11:00,14.4,0,52,0,23.1,0,55.5,0,=,2,16.1,0
2004/12/2 11:15,14.5,0,52,0,23.2,0,54.8,0,=,2,16.2,0
2004/12/2 11:30,14.6,0,51,0,23.3,0,54.4,0,=,2,16.2,0
2004/12/2 11:45,14.7,0,50,0,23.4,0,54.3,0,=,2,16.3,0
2004/12/2 12:00,14.9,0,50,0,23.4,0,54,0,=,2,16.3,0
2004/12/2 12:15,15.1,0,48,0,23.3,0,52,0,=,2,16.3,0
2004/12/2 12:30,15.1,0,46,0,23.4,0,52,0,=,2,16.4,0
2004/12/2 12:45,15.4,0,44,0,23.5,0,52.2,0,=,2,16.4,0
2004/12/2 13:00,15.6,0,41,0,23.6,0,52.4,0,=,2,16.5,0
2004/12/2 13:15,15.6,0,40,0,23.6,0,52.4,0,=,2,16.5,0
2004/12/2 13:30,15.8,0,39,0,23.5,0,50,0,=,2,16.9,0
2004/12/2 13:45,16,0,38,0,23.4,0,48.2,0,=,2,17,0
2004/12/2 14:00,15.9,0,39,0,23.5,0,50.9,0,=,2,17,0
2004/12/2 14:15,16,0,38,0,23.2,0,52.3,0,=,2,17,0
2004/12/2 14:30,16,0,37,0,23.1,0,53.8,0,=,2,17.1,0
2004/12/2 14:45,16.1,0,38,0,22.9,0,53,0,=,2,17.1,0
2004/12/2 15:00,16,0,38,0,22.9,0,53.8,0,=,2,17.1,0
2004/12/2 15:15,17.7,0,37,0,22.4,0,46.8,0,=,2,17.1,0
2004/12/2 15:30,16,0,37,0,22.4,0,43.2,0,=,2,17.2,0
2004/12/2 15:45,16,0,38,0,22.7,0,44.9,0,=,2,17.3,0
2004/12/2 16:00,16,0,37,0,22.9,0,46.4,0,=,2,17.3,0
2004/12/2 16:15,16,0,38,0,23,0,48.5,0,=,2,17.3,0
2004/12/2 16:30,15.8,0,39,0,23,0,49,0,=,2,17.3,0
2004/12/2 16:45,15.7,0,39,0,22.9,0,49.1,0,=,2,17.1,0
2004/12/2 17:00,15.4,0,39,0,22.8,0,49.5,0,=,2,17.1,0
2004/12/2 17:15,15.2,0,41,0,22.9,0,52.1,0,=,2,17.2,0
2004/12/2 17:30,15.2,0,42,0,22.9,0,52.3,0,=,2,17.2,0
2004/12/2 17:45,15.1,0,45,0,22.9,0,52.3,0,=,2,17.2,0
2004/12/2 18:00,15,0,45,0,22.9,0,52.5,0,=,2,17.2,0
2004/12/2 18:15,14.9,0,47,0,22.9,0,52.6,0,=,2,17.3,0
2004/12/2 18:30,14.7,0,49,0,22.8,0,52.2,0,=,2,17.3,0
2004/12/2 18:45,14.7,0,49,0,22.9,0,52.5,0,=,2,17.3,0
2004/12/2 19:00,14.5,0,50,0,22.8,0,52.3,0,=,2,17.3,0
2004/12/2 19:15,14.5,0,51,0,22.8,0,52.5,0,=,2,17.3,0
2004/12/2 19:30,14.4,0,52,0,22.8,0,52.8,0,=,2,17.4,0
2004/12/2 19:45,14.2,0,53,0,22.8,0,52.9,0,=,2,17.4,0
2004/12/2 20:00,14.2,0,54,0,22.8,0,53.1,0,=,2,17.1,0
2004/12/2 20:15,13.6,0,57,0,22.8,0,52,0,=,2,17.1,0
2004/12/2 20:30,13.7,0,57,0,22.9,0,52.3,0,=,2,17.1,0
2004/12/2 20:45,13.7,0,56,0,22.9,0,51.9,0,=,2,17.2,0
2004/12/2 21:00,13.6,0,57,0,22.9,0,52.1,0,=,2,17.2,0
2004/12/2 21:15,13.5,0,57,0,22.8,0,52,0,=,2,17.2,0
2004/12/2 21:30,13.5,0,56,0,22.8,0,52.3,0,=,2,17.2,0
2004/12/2 21:45,13.5,0,54,0,22.7,0,52.5,0,=,2,16.2,0
2004/12/2 22:00,13.5,0,55,0,22.8,0,54,0,=,2,16.2,0
2004/12/2 22:15,13.4,0,54,0,22.8,0,54.9,0,=,2,16.3,0
2004/12/2 22:30,13.5,0,54,0,22.9,0,56.2,0,=,2,16.3,0
2004/12/2 22:45,13.5,0,54,0,22.9,0,56.5,0,=,2,16.3,0
2004/12/2 23:00,13.3,0,54,0,23,0,57.3,0,=,2,16,0
2004/12/2 23:15,13.4,0,53,0,22.9,0,57.7,0,=,2,16,0
2004/12/2 23:30,13.5,0,53,0,22.9,0,57.7,0,=,2,16.1,0
2004/12/2 23:45,13.3,0,54,0,23,0,59.8,0,=,2,16.1,0
2004/12/3 0:00,13.5,0,54,0,22.9,0,60.8,0,=,2,16.1,0
2004/12/3 0:15,13.3,0,55,0,22.8,0,60.7,0,=,2,16.2,0
2004/12/3 0:30,13.4,0,56,0,22.6,0,52.4,0,=,2,16.2,0
2004/12/3 0:45,12.8,0,57,0,22.5,0,51.7,0,=,2,16.3,0
2004/12/3 1:00,12.7,0,59,0,22.6,0,52.4,0,=,2,16.3,0
2004/12/3 1:15,12.7,0,60,0,22.7,0,52.4,0,=,2,16.4,0
2004/12/3 1:30,12.5,0,60,0,22.7,0,52.9,0,=,2,16.4,0
2004/12/3 1:45,12.7,0,60,0,22.6,0,52.8,0,=,2,16.5,0
2004/12/3 2:00,12.6,0,59,0,22.6,0,52.7,0,=,2,16.5,0
2004/12/3 2:15,12.4,0,61,0,22.5,0,52.5,0,=,2,16.5,0
2004/12/3 2:30,12.4,0,61,0,22.5,0,52.4,0,=,2,16.6,0
2004/12/3 2:45,12.3,0,61,0,22.5,0,52.2,0,=,2,16.6,0
2004/12/3 3:00,12.3,0,62,0,22.5,0,52.1,0,=,2,16.6,0
2004/12/3 3:15,12.2,0,61,0,22.4,0,52.1,0,=,2,16.7,0
2004/12/3 3:30,11.9,0,63,0,22.4,0,52.1,0,=,2,16.7,0
2004/12/3 3:45,11.9,0,63,0,22.4,0,52.1,0,=,2,16.7,0
2004/12/3 4:00,11.8,0,64,0,22.4,0,52.1,0,=,2,16.8,0
2004/12/3 4:15,11.8,0,65,0,22.4,0,52,0,=,2,16.8,0
2004/12/3 4:30,11.7,0,65,0,22.3,0,52,0,=,2,16.8,0
2004/12/3 4:45,11.7,0,64,0,22.3,0,51.9,0,=,2,16.9,0
2004/12/3 5:00,11.7,0,64,0,22.3,0,51.9,0,=,2,16.9,0
2004/12/3 5:15,11.9,0,65,0,22.3,0,51.8,0,=,2,16.9,0
2004/12/3 5:30,11.9,0,64,0,22.3,0,51.8,0,=,2,17,0
2004/12/3 5:45,11.8,0,64,0,22.2,0,51.7,0,=,2,17,0
2004/12/3 6:00,11.8,0,64,0,22.2,0,51.7,0,=,2,17,0
2004/12/3 6:15,11.7,0,65,0,22.2,0,51.7,0,=,2,17,0
2004/12/3 6:30,11.7,0,65,0,22.2,0,51.5,0,=,2,17.1,0
2004/12/3 6:45,11.6,0,65,0,22.2,0,51.4,0,=,2,17.1,0
2004/12/3 7:00,11.6,0,66,0,22.2,0,51.5,0,=,2,17.1,0
2004/12/3 7:15,11.5,0,66,0,22.2,0,51.4,0,=,2,17.1,0
2004/12/3 7:30,11.5,0,66,0,22.2,0,51.3,0,=,2,17.2,0
2004/12/3 7:45,11.7,0,65,0,22.2,0,51.5,0,=,2,16.8,0
2004/12/3 8:00,11.9,0,65,0,22.5,0,53.9,0,=,2,15.6,0
2004/12/3 8:15,12.1,0,62,0,22.5,0,53.8,0,=,2,15.6,0
2004/12/3 8:30,12.2,0,61,0,22.4,0,53.6,0,=,2,15.7,0
2004/12/3 8:45,12.5,0,60,0,22.3,0,53.6,0,=,2,15.7,0
2004/12/3 9:00,12.8,0,58,0,22.3,0,53.6,0,=,2,15.8,0
2004/12/3 9:15,13.1,0,56,0,22.3,0,53.7,0,=,2,15.8,0
2004/12/3 9:30,13.7,0,55,0,22.2,0,53.8,0,=,2,15.9,0
2004/12/3 9:45,14,0,54,0,22.3,0,54,0,=,2,15.9,0
2004/12/3 10:00,14.5,0,53,0,22.3,0,53.9,0,=,2,15.9,0
2004/12/3 10:15,14.9,0,51,0,22.6,0,53.7,0,=,2,16,0
2004/12/3 10:30,15.1,0,50,0,22.8,0,52.3,0,=,2,16,0
2004/12/3 10:45,15.3,0,50,0,22.8,0,50.4,0,=,2,16,0
2004/12/3 11:00,15.7,0,49,0,22.9,0,49.5,0,=,2,16.1,0
2004/12/3 11:15,15.9,0,49,0,23.1,0,49.4,0,=,2,16.5,0
2004/12/3 11:30,16.2,0,49,0,23.3,0,48.9,0,=,2,16.6,0
2004/12/3 11:45,16.5,0,48,0,23.2,0,47.9,0,=,2,16.6,0
2004/12/3 12:00,16.6,0,48,0,23.3,0,47.6,0,=,2,16.6,0
2004/12/3 12:15,16.7,0,48,0,23.2,0,46.7,0,=,2,16.6,0
2004/12/3 12:30,16.8,0,48,0,23.5,0,46.6,0,=,2,16.7,0
2004/12/3 12:45,17,0,47,0,23.7,0,47.5,0,=,2,16.7,0
2004/12/3 13:00,17.3,0,48,0,23.6,0,46.7,0,=,2,16.7,0
2004/12/3 13:15,17.3,0,48,0,23.8,0,47,0,=,2,16.8,0
2004/12/3 13:30,17.3,0,47,0,23.8,0,47.1,0,=,2,16.8,0
2004/12/3 13:45,17.5,0,46,0,23.7,0,49.7,0,=,2,16.8,0
2004/12/3 14:00,17.5,0,46,0,23.5,0,50.8,0,=,2,16.9,0
2004/12/3 14:15,17.7,0,46,0,23.5,0,51.8,0,=,2,16.9,0
2004/12/3 14:30,17.8,0,47,0,23.3,0,51.8,0,=,2,16.9,0
2004/12/3 14:45,17.8,0,50,0,23.3,0,51.5,0,=,2,17,0
2004/12/3 15:00,17.6,0,51,0,23.2,0,51.7,0,=,2,17,0
2004/12/3 15:15,17.5,0,54,0,23.1,0,52.1,0,=,2,17,0
2004/12/3 15:30,17.4,0,55,0,23.1,0,52.7,0,=,2,17.1,0
2004/12/3 15:45,17.4,0,54,0,23.1,0,53.5,0,=,2,17.1,0
2004/12/3 16:00,17.4,0,54,0,23.2,0,53.9,0,=,2,17.1,0
2004/12/3 16:15,17.1,0,58,0,23.2,0,54.1,0,=,2,17.2,0
2004/12/3 16:30,17,0,61,0,23.2,0,54.2,0,=,2,17.2,0
2004/12/3 16:45,16.9,0,60,0,23.2,0,54.2,0,=,2,17.2,0
2004/12/3 17:00,16.9,0,60,0,23.2,0,54.3,0,=,2,17.3,0
2004/12/3 17:15,16.7,0,62,0,23.1,0,52.4,0,=,2,17.3,0
2004/12/3 17:30,16.7,0,63,0,23.1,0,52.8,0,=,2,16.4,0
2004/12/3 17:45,16.4,0,65,0,23.1,0,53.4,0,=,2,16.4,0
2004/12/3 18:00,16.4,0,65,0,23,0,53.5,0,=,2,16.5,0
2004/12/3 18:15,16.4,0,65,0,22.9,0,53.3,0,=,2,16.2,0
2004/12/3 18:30,16.1,0,65,0,23,0,54.2,0,=,2,16.2,0
2004/12/3 18:45,15.9,0,65,0,23,0,53.8,0,=,2,16.2,0
2004/12/3 19:00,15.8,0,65,0,23,0,56,0,=,2,16.3,0
2004/12/3 19:15,15.7,0,65,0,22.9,0,56.2,0,=,2,16.3,0
2004/12/3 19:30,15.7,0,65,0,22.8,0,56,0,=,2,16.4,0
2004/12/3 19:45,15.7,0,65,0,22.9,0,56.6,0,=,2,16.4,0
2004/12/3 20:00,15.3,0,66,0,23.1,0,58.6,0,=,2,16.4,0
2004/12/3 20:15,15.3,0,67,0,23,0,56.9,0,=,2,16.5,0
2004/12/3 20:30,15.4,0,67,0,23.1,0,57.8,0,=,2,16.5,0
2004/12/3 20:45,15.3,0,67,0,23.1,0,57.8,0,=,2,16.5,0
2004/12/3 21:00,15.3,0,68,0,23.1,0,57.6,0,=,2,16.6,0
2004/12/3 21:15,15.2,0,67,0,23.1,0,57.3,0,=,2,16.6,0
2004/12/3 21:30,15.1,0,66,0,23,0,56.9,0,=,2,16.3,0
2004/12/3 21:45,15.1,0,62,0,23,0,57.3,0,=,2,16.3,0
2004/12/3 22:00,15.1,0,62,0,22.9,0,57.7,0,=,2,16.3,0
2004/12/3 22:15,15.2,0,62,0,23.1,0,58.5,0,=,2,16.4,0
2004/12/3 22:30,15.1,0,62,0,23.1,0,59,0,=,2,16.4,0
2004/12/3 22:45,15,0,63,0,23.1,0,58.9,0,=,2,16.4,0
2004/12/3 23:00,15.1,0,62,0,23.4,0,59.9,0,=,2,16.5,0
2004/12/3 23:15,15,0,62,0,23.4,0,59.9,0,=,2,16.5,0
2004/12/3 23:30,14.9,0,62,0,23.4,0,60,0,=,2,16.6,0
2004/12/3 23:45,15.1,0,62,0,23.4,0,60.7,0,=,2,16.6,0
2004/12/4 0:00,15,0,63,0,23.2,0,57.9,0,=,2,16.6,0
2004/12/4 0:15,15,0,63,0,23.2,0,58.2,0,=,2,16.7,0
2004/12/4 0:30,15.1,0,63,0,23.2,0,58.9,0,=,2,16.5,0
2004/12/4 0:45,15.1,0,63,0,23.2,0,61.4,0,=,2,16.5,0
2004/12/4 1:00,15.1,0,63,0,23.2,0,63.1,0,=,2,16.6,0
2004/12/4 1:15,15.2,0,63,0,23.7,0,64.4,0,=,2,16.6,0
2004/12/4 1:30,15,0,64,0,23.5,0,65.6,0,=,2,16.6,0
2004/12/4 1:45,15.1,0,65,0,23.4,0,64.5,0,=,2,16.7,0
2004/12/4 2:00,14.9,0,65,0,23.2,0,63.9,0,=,2,16.7,0
2004/12/4 2:15,15,0,65,0,23.1,0,63.6,0,=,2,16.8,0
2004/12/4 2:30,15.1,0,65,0,23.1,0,63.3,0,=,2,16.8,0
2004/12/4 2:45,15.2,0,63,0,23,0,62.8,0,=,2,16.8,0
2004/12/4 3:00,15.2,0,64,0,23,0,62.3,0,=,2,16.9,0
2004/12/4 3:15,15,0,65,0,22.9,0,62,0,=,2,16.9,0
2004/12/4 3:30,15.2,0,65,0,22.9,0,61.7,0,=,2,17,0
2004/12/4 3:45,15.1,0,65,0,22.8,0,61.3,0,=,2,17,0
2004/12/4 4:00,15.2,0,65,0,22.8,0,61,0,=,2,17.1,0
2004/12/4 4:15,15.3,0,65,0,22.8,0,60.8,0,=,2,17.1,0
2004/12/4 4:30,15.1,0,65,0,22.8,0,60.5,0,=,2,17.2,0
2004/12/4 4:45,15.1,0,65,0,22.7,0,60.2,0,=,2,16.9,0
2004/12/4 5:00,15.1,0,65,0,22.7,0,60,0,=,2,17,0
2004/12/4 5:15,15.3,0,65,0,22.7,0,59.8,0,=,2,17,0
2004/12/4 5:30,15.3,0,66,0,22.7,0,59.6,0,=,2,17.1,0
2004/12/4 5:45,15.3,0,67,0,22.7,0,59.5,0,=,2,17.1,0
2004/12/4 6:00,15.6,0,67,0,22.6,0,59.3,0,=,2,17.1,0
2004/12/4 6:15,15.7,0,67,0,22.6,0,59.1,0,=,2,17.2,0
2004/12/4 6:30,15.8,0,67,0,22.6,0,59,0,=,2,17.2,0
2004/12/4 6:45,16.1,0,67,0,22.6,0,58.8,0,=,2,17.2,0
2004/12/4 7:00,16.3,0,66,0,22.6,0,58.8,0,=,2,17.3,0
2004/12/4 7:15,16.4,0,66,0,22.6,0,58.7,0,=,2,17.3,0
2004/12/4 7:30,16.4,0,66,0,22.6,0,58.4,0,=,2,17.3,0
2004/12/4 7:45,16.6,0,66,0,22.6,0,58.3,0,=,2,17.4,0
2004/12/4 8:00,16.6,0,66,0,22.7,0,59.2,0,=,2,17.4,0
2004/12/4 8:15,16.5,0,67,0,23,0,60.7,0,=,2,16.8,0
2004/12/4 8:30,16.6,0,67,0,23,0,60.7,0,=,2,16,0
2004/12/4 8:45,16.7,0,67,0,22.9,0,58.6,0,=,2,15.9,0
2004/12/4 9:00,16.8,0,69,0,22.8,0,57.8,0,=,2,16,0
2004/12/4 9:15,16.9,0,71,0,22.9,0,58.2,0,=,2,16.1,0
2004/12/4 9:30,17.2,0,72,0,22.8,0,58.3,0,=,2,15.8,0
2004/12/4 9:45,16.8,0,77,0,22.7,0,58.6,0,=,2,15.9,0
2004/12/4 10:00,16.5,0,80,0,22.7,0,58.6,0,=,2,15.9,0
2004/12/4 10:15,16.3,0,82,0,22.7,0,58.6,0,=,2,16,0
2004/12/4 10:30,16.4,0,85,0,22.6,0,58.6,0,=,2,16,0
2004/12/4 10:45,16.5,0,86,0,22.6,0,58.6,0,=,2,16.1,0
2004/12/4 11:00,16.3,0,85,0,22.6,0,58.6,0,=,2,16.1,0
2004/12/4 11:15,16.4,0,85,0,22.6,0,58.6,0,=,2,16.2,0
2004/12/4 11:30,16.3,0,85,0,22.5,0,58.5,0,=,2,16.2,0
2004/12/4 11:45,16.1,0,87,0,22.5,0,58.5,0,=,2,16.2,0
2004/12/4 12:00,16.2,0,89,0,22.5,0,58.5,0,=,2,16.3,0
2004/12/4 12:15,16.2,0,91,0,22.5,0,58.4,0,=,2,16.3,0
2004/12/4 12:30,16.2,0,92,0,22.5,0,58.4,0,=,2,16.4,0
2004/12/4 12:45,16.4,0,93,0,22.5,0,58.3,0,=,2,16.4,0
2004/12/4 13:00,16.3,0,93,0,22.5,0,58.3,0,=,2,16.5,0
2004/12/4 13:15,16.2,0,95,0,22.4,0,58.4,0,=,2,16.5,0
2004/12/4 13:30,16.4,0,95,0,22.4,0,58.4,0,=,2,16.6,0
2004/12/4 13:45,16.3,0,95,0,22.4,0,58.4,0,=,2,16.6,0
2004/12/4 14:00,16.3,0,96,0,22.4,0,58.4,0,=,2,16.6,0
2004/12/4 14:15,16.3,0,96,0,22.4,0,58.4,0,=,2,16.7,0
2004/12/4 14:30,16.2,0,96,0,22.4,0,58.4,0,=,2,16.7,0
2004/12/4 14:45,16,0,96,0,22.4,0,58.4,0,=,2,16.8,0
2004/12/4 15:00,15.9,0,96,0,22.4,0,58.4,0,=,2,16.8,0
2004/12/4 15:15,15.8,0,96,0,22.3,0,58.4,0,=,2,16.8,0
2004/12/4 15:30,15.7,0,97,0,22.3,0,58.4,0,=,2,16.9,0
2004/12/4 15:45,15.9,0,97,0,22.4,0,59.3,0,=,2,16.9,0
2004/12/4 16:00,15.8,0,98,0,22.5,0,60,0,=,2,17,0
2004/12/4 16:15,15.8,0,99,0,22.5,0,60.2,0,=,2,17.2,0
2004/12/4 16:30,15.7,0,99,0,22.6,0,60.6,0,=,2,17.2,0
2004/12/4 16:45,15.6,0,99,0,22.7,0,61.5,0,=,2,17.2,0
2004/12/4 17:00,15.7,0,99,0,22.7,0,61.8,0,=,2,17.3,0
2004/12/4 17:15,15.7,0,99,0,22.6,0,60.4,0,=,2,17.3,0
2004/12/4 17:30,15.7,0,99,0,22.6,0,60,0,=,2,17.3,0
2004/12/4 17:45,15.7,0,99,0,22.6,0,61,0,=,2,17.4,0
2004/12/4 18:00,15.8,0,99,0,22.6,0,62.2,0,=,2,17.4,0
2004/12/4 18:15,15.7,0,99,0,22.7,0,62.4,0,=,2,17.4,0
2004/12/4 18:30,15.6,0,99,0,22.8,0,63,0,=,2,17.5,0
2004/12/4 18:45,15.7,0,99,0,22.8,0,63.6,0,=,2,17.5,0
2004/12/4 19:00,15.7,0,99,0,23,0,64.8,0,=,2,17.5,0
2004/12/4 19:15,15.7,0,99,0,22.9,0,63.9,0,=,2,16.4,0
2004/12/4 19:30,15.8,0,99,0,23,0,63.8,0,=,2,16.3,0
2004/12/4 19:45,15.8,0,99,0,23.1,0,64.8,0,=,2,16.1,0
2004/12/4 20:00,15.8,0,99,0,23.2,0,65,0,=,2,15.9,0
2004/12/4 20:15,15.8,0,99,0,23.1,0,65.1,0,=,2,16,0
2004/12/4 20:30,15.8,0,99,0,23.1,0,65,0,=,2,16,0
2004/12/4 20:45,15.9,0,99,0,23.2,0,64.8,0,=,2,16.1,0
2004/12/4 21:00,16,0,99,0,23.2,0,64.7,0,=,2,16.1,0
2004/12/4 21:15,16.1,0,99,0,23.1,0,64.2,0,=,2,16,0
2004/12/4 21:30,16.2,0,99,0,23.1,0,64.4,0,=,2,16.1,0
2004/12/4 21:45,16.2,0,99,0,23.1,0,65.1,0,=,2,16.1,0
2004/12/4 22:00,16.2,0,99,0,23.2,0,66.2,0,=,2,16.2,0
2004/12/4 22:15,16.3,0,99,0,23.2,0,66.5,0,=,2,16.2,0
2004/12/4 22:30,16.5,0,99,0,23.2,0,66.7,0,=,2,16.3,0
2004/12/4 22:45,16.6,0,99,0,23.3,0,66.5,0,=,2,16.3,0
2004/12/4 23:00,16.6,0,99,0,23.4,0,68.4,0,=,2,16.4,0
2004/12/4 23:15,16.5,0,99,0,23.4,0,69.5,0,=,2,16.4,0
2004/12/4 23:30,16.6,0,99,0,23.3,0,68.6,0,=,2,16.5,0
2004/12/4 23:45,16.6,0,98,0,23.3,0,68.4,0,=,2,16.5,0
2004/12/5 0:00,16,0,89,0,23.2,0,68.3,0,=,2,16.6,0
2004/12/5 0:15,16,0,89,0,23.2,0,68.1,0,=,2,16.6,0
2004/12/5 0:30,16.1,0,89,0,23.1,0,67.7,0,=,2,16.7,0
2004/12/5 0:45,16.1,0,91,0,23.1,0,69.5,0,=,2,16.7,0
2004/12/5 1:00,16.2,0,92,0,23.1,0,71,0,=,2,16.8,0
2004/12/5 1:15,16.2,0,92,0,23.1,0,71.2,0,=,2,16.8,0
2004/12/5 1:30,16.1,0,91,0,23.1,0,72.1,0,=,2,16.9,0
2004/12/5 1:45,16.1,0,90,0,23,0,72.6,0,=,2,16.9,0
2004/12/5 2:00,15.9,0,90,0,23,0,72.8,0,=,2,17,0
2004/12/5 2:15,16,0,89,0,23,0,73,0,=,2,17,0
2004/12/5 2:30,15.8,0,88,0,22.9,0,73.1,0,=,2,17.5,0
2004/12/5 2:45,15.6,0,89,0,22.9,0,73.3,0,=,2,17.6,0
2004/12/5 3:00,14.6,0,87,0,22.9,0,73.4,0,=,2,17.6,0
2004/12/5 3:15,14.5,0,82,0,22.9,0,73.3,0,=,2,17.6,0
2004/12/5 3:30,14.6,0,85,0,22.8,0,73.3,0,=,2,17.7,0
2004/12/5 3:45,14.5,0,87,0,22.8,0,73.3,0,=,2,17.7,0
2004/12/5 4:00,14.5,0,83,0,22.8,0,73.3,0,=,2,17.7,0
2004/12/5 4:15,14.6,0,74,0,22.8,0,73.6,0,=,2,17.8,0
2004/12/5 4:30,14.5,0,67,0,22.8,0,73.5,0,=,2,17.8,0
2004/12/5 4:45,14.5,0,62,0,22.7,0,73.4,0,=,2,17.8,0
2004/12/5 5:00,14.2,0,58,0,22.7,0,73.7,0,=,2,17.9,0
2004/12/5 5:15,14.2,0,57,0,22.7,0,73.7,0,=,2,17.9,0
2004/12/5 5:30,14.1,0,57,0,22.7,0,73.7,0,=,2,17.9,0
2004/12/5 5:45,14,0,53,0,22.7,0,73.7,0,=,2,18,0
2004/12/5 6:00,13.8,0,53,0,22.6,0,73.6,0,=,2,18,0
2004/12/5 6:15,13.8,0,55,0,22.6,0,73.6,0,=,2,18,0
2004/12/5 6:30,13.7,0,54,0,22.6,0,73.4,0,=,2,18.1,0
2004/12/5 6:45,13.6,0,54,0,22.6,0,73.2,0,=,2,18.1,0
2004/12/5 7:00,13.5,0,56,0,22.6,0,73,0,=,2,18.1,0
2004/12/5 7:15,13.6,0,56,0,22.5,0,72.8,0,=,2,18.2,0
2004/12/5 7:30,13.4,0,55,0,22.5,0,71,0,=,2,18.3,0
2004/12/5 7:45,13.4,0,56,0,22.6,0,70.5,0,=,2,18.3,0
2004/12/5 8:00,13.2,0,54,0,22.9,0,71.4,0,=,2,17.9,0
2004/12/5 8:15,13.2,0,53,0,22.9,0,70.6,0,=,2,17.9,0
2004/12/5 8:30,13,0,52,0,22.8,0,69.5,0,=,2,16.6,0
2004/12/5 8:45,13.1,0,52,0,22.8,0,69.4,0,=,2,16.1,0
2004/12/5 9:00,13.7,0,55,0,22.8,0,68.6,0,=,2,16,0
2004/12/5 9:15,12.8,0,47,0,22.7,0,68.8,0,=,2,16,0
2004/12/5 9:30,12.9,0,51,0,22.7,0,68.7,0,=,2,16.1,0
2004/12/5 9:45,13.1,0,49,0,22.6,0,68.5,0,=,2,16.1,0
2004/12/5 10:00,13,0,49,0,22.6,0,68.3,0,=,2,16.2,0
2004/12/5 10:15,12.9,0,48,0,22.8,0,67.8,0,=,2,16.2,0
2004/12/5 10:30,13,0,44,0,22.9,0,67,0,=,2,16.3,0
2004/12/5 10:45,13,0,41,0,23,0,66.2,0,=,2,16.3,0
2004/12/5 11:00,13,0,45,0,23,0,65.8,0,=,2,16.4,0
2004/12/5 11:15,13.1,0,45,0,23.2,0,65.2,0,=,2,16.4,0
2004/12/5 11:30,13.1,0,44,0,23.3,0,64.3,0,=,2,16.5,0
2004/12/5 11:45,13.1,0,46,0,23.5,0,63.4,0,=,2,16.5,0
2004/12/5 12:00,13,0,45,0,23.3,0,63.2,0,=,2,16.6,0
2004/12/5 12:15,13,0,46,0,23.3,0,62.9,0,=,2,16.6,0
2004/12/5 12:30,12.9,0,46,0,23.2,0,63,0,=,2,16.6,0
2004/12/5 12:45,13.4,0,46,0,23.3,0,62.3,0,=,2,16.7,0
2004/12/5 13:00,13.3,0,46,0,23.3,0,61.7,0,=,2,16.7,0
2004/12/5 13:15,13.4,0,46,0,23.4,0,61.4,0,=,2,16.8,0
2004/12/5 13:30,13.4,0,46,0,23.3,0,61.1,0,=,2,16.8,0
2004/12/5 13:45,13.3,0,46,0,23.2,0,61.3,0,=,2,16.8,0
2004/12/5 14:00,13.5,0,45,0,23.1,0,61.1,0,=,2,16.9,0
2004/12/5 14:15,13.4,0,46,0,23,0,61.3,0,=,2,16.9,0
2004/12/5 14:30,13.2,0,46,0,22.9,0,61.3,0,=,2,17,0
2004/12/5 14:45,13.4,0,46,0,22.9,0,61.4,0,=,2,17,0
2004/12/5 15:00,13.4,0,46,0,22.8,0,61.3,0,=,2,17,0
2004/12/5 15:15,13.1,0,46,0,22.8,0,61.2,0,=,2,17.1,0
2004/12/5 15:30,13.2,0,47,0,22.8,0,61.1,0,=,2,17.1,0
2004/12/5 15:45,13.4,0,46,0,22.8,0,61,0,=,2,17.2,0
2004/12/5 16:00,13,0,46,0,22.7,0,60.8,0,=,2,17.2,0
2004/12/5 16:15,13.2,0,45,0,22.7,0,60.5,0,=,2,17.2,0
2004/12/5 16:30,13.1,0,46,0,22.7,0,60.3,0,=,2,17.2,0
2004/12/5 16:45,13.1,0,46,0,22.6,0,60.3,0,=,2,17.3,0